TimeEDT,TemperatureF,Dew PointF,Humidity,Sea Level PressureIn,VisibilityMPH,Wind Direction,Wind SpeedMPH,Gust SpeedMPH,PrecipitationIn,Events,Conditions,WindDirDegrees,DateUTC
12:53 AM,66.0,54.0,65,30.00,10.0,ESE,6.9,-,N/A,,Mostly Cloudy,120,2013-05-19 04:53:00
1:53 AM,64.0,52.0,65,29.97,10.0,ESE,8.1,-,N/A,,Clear,110,2013-05-19 05:53:00
2:53 AM,62.1,50.0,65,29.96,10.0,ESE,6.9,-,N/A,,Clear,120,2013-05-19 06:53:00
3:53 AM,57.0,48.9,74,29.97,10.0,ESE,5.8,-,N/A,,Clear,110,2013-05-19 07:53:00
4:53 AM,60.1,48.0,64,29.97,10.0,East,3.5,-,N/A,,Clear,80,2013-05-19 08:53:00
6:53 AM,57.9,48.0,70,29.98,10.0,Calm,Calm,-,N/A,,Clear,0,2013-05-19 10:53:00
8:53 AM,66.0,52.0,60,29.99,10.0,SSE,3.5,-,N/A,,Clear,150,2013-05-19 12:53:00
9:53 AM,72.0,55.9,57,29.98,10.0,SE,4.6,-,N/A,,Clear,140,2013-05-19 13:53:00
10:53 AM,75.0,59.0,57,29.97,10.0,Calm,Calm,-,N/A,,Clear,0,2013-05-19 14:53:00
11:53 AM,80.1,61.0,52,29.97,10.0,Calm,Calm,-,N/A,,Clear,0,2013-05-19 15:53:00
12:53 PM,81.0,61.0,50,29.96,10.0,ESE,3.5,-,N/A,,Mostly Cloudy,120,2013-05-19 16:53:00
1:53 PM,82.9,61.0,47,29.94,10.0,SE,6.9,-,N/A,,Clear,140,2013-05-19 17:53:00
3:53 PM,86.0,60.1,41,29.87,10.0,SSW,8.1,-,N/A,,Clear,200,2013-05-19 19:53:00
4:53 PM,84.9,60.1,43,29.87,10.0,SE,11.5,-,N/A,,Clear,140,2013-05-19 20:53:00
5:53 PM,84.9,61.0,44,29.87,10.0,SSE,10.4,-,N/A,,Partly Cloudy,160,2013-05-19 21:53:00
6:53 PM,84.9,60.1,43,29.85,10.0,SSE,11.5,-,N/A,,Clear,160,2013-05-19 22:53:00
7:53 PM,82.9,61.0,47,29.83,10.0,SSE,9.2,-,N/A,,Clear,150,2013-05-19 23:53:00
8:53 PM,80.1,60.1,50,29.84,10.0,South,8.1,-,N/A,,Clear,180,2013-05-20 00:53:00
9:53 PM,77.0,61.0,58,29.86,10.0,South,5.8,-,N/A,,Clear,190,2013-05-20 01:53:00
10:53 PM,73.0,61.0,66,29.88,10.0,South,4.6,-,N/A,,Clear,170,2013-05-20 02:53:00